Location: Hawks Ness
(60.2333°N, 1.1667°W)
Time: 21:33:54
(UTC+00:00)

Cosmos 2098 Rocket - Pass Details

Date: 22 October 2019
Orbit: 366 x 1192 km, 82.9° (Epoch: 20 November)

Event Time Altitude Azimuth Distance (km) Brightness Sun altitude
Exits shadow 03:18:23 58° 208° (SSW) 1,348 4.4 -27.6°
Maximum altitude 03:20:03 81° 284° (WNW) 1,169 4.2 -27.4°
Drops below altitude 10° 03:26:56 10° 13° (NNE) 2,864 6.9 -26.6°
Sets 03:29:21 0° 15° (NNE) 3,724 7.6 -26.4°
